When you browse on this site, cookies collect data to enhance your experience and personalize the content and advertising you see.
Visit our Privacy Policy to learn more. By continuing to use the site, you agree to this use of cookies and data.
  • en France
  • Liste des pays
  • À 7 jours
  • Température de l'eau
  • Carte satellitaire
  • Carte météo
  • Widgets météo
  • user-avatar
    Se connecter

    Météo par heure à Cordoba

    Ce jour, 18 Novembre, Dimanche

    Heure Température Précipitation Vent Pression Humidité
    00:00 +19°C° 0 mm 5 m/s 725 mmHg 48%
    01:00 +18°C° 0 mm 4 m/s 725 mmHg 46%
    02:00 +16°C° 0 mm 3 m/s 725 mmHg 41%
    03:00 +16°C° 0 mm 3 m/s 725 mmHg 40%
    04:00 +14°C° 0 mm 3 m/s 726 mmHg 40%
    05:00 +14°C° 0 mm 3 m/s 726 mmHg 39%
    06:00 +16°C° 0 mm 3 m/s 727 mmHg 35%
    07:00 +18°C° 0 mm 3 m/s 727 mmHg 32%
    08:00 +19°C° 0 mm 3 m/s 728 mmHg 28%
    09:00 +21°C° 0 mm 3 m/s 728 mmHg 26%
    10:00 +22°C° 0 mm 3 m/s 728 mmHg 24%
    11:00 +25°C° 0 mm 2 m/s 728 mmHg 22%
    12:00 +25°C° 0 mm 3 m/s 727 mmHg 21%
    13:00 +26°C° 0 mm 3 m/s 727 mmHg 21%
    14:00 +27°C° 0 mm 3 m/s 726 mmHg 21%
    15:00 +27°C° 0 mm 4 m/s 726 mmHg 23%
    16:00 +26°C° 0 mm 4 m/s 725 mmHg 25%
    17:00 +26°C° 0 mm 4 m/s 725 mmHg 28%
    18:00 +23°C° 0 mm 4 m/s 725 mmHg 32%
    19:00 +21°C° 0 mm 3 m/s 725 mmHg 37%
    20:00 +19°C° 0 mm 2 m/s 725 mmHg 42%
    21:00 +18°C° 0 mm 2 m/s 726 mmHg 43%
    22:00 +18°C° 0 mm 2 m/s 726 mmHg 44%
    23:00 +17°C° 0 mm 3 m/s 727 mmHg 45%

    Demain, 19 Novembre, Lundi

    Heure Température Précipitation Vent Pression Humidité
    00:00 +17°C° 0 mm 3 m/s 726 mmHg 46%
    01:00 +16°C° 0 mm 2 m/s 726 mmHg 47%
    02:00 +16°C° 0 mm 2 m/s 725 mmHg 48%
    03:00 +16°C° 0 mm 2 m/s 725 mmHg 49%
    04:00 +16°C° 0 mm 2 m/s 725 mmHg 49%
    05:00 +15°C° 0 mm 2 m/s 725 mmHg 50%
    06:00 +17°C° 0 mm 3 m/s 725 mmHg 48%
    07:00 +19°C° 0 mm 4 m/s 725 mmHg 45%
    08:00 +21°C° 0 mm 5 m/s 726 mmHg 43%
    09:00 +23°C° 0 mm 5 m/s 725 mmHg 41%
    10:00 +26°C° 0 mm 6 m/s 725 mmHg 38%
    11:00 +27°C° 0 mm 6 m/s 725 mmHg 36%
    12:00 +28°C° 0 mm 6 m/s 725 mmHg 35%
    13:00 +29°C° 0 mm 6 m/s 724 mmHg 35%
    14:00 +30°C° 0 mm 6 m/s 723 mmHg 34%
    15:00 +30°C° 0 mm 6 m/s 723 mmHg 35%
    16:00 +29°C° 0 mm 6 m/s 722 mmHg 37%
    17:00 +29°C° 0 mm 6 m/s 722 mmHg 38%
    18:00 +27°C° 0 mm 5 m/s 722 mmHg 43%
    19:00 +23°C° 0 mm 4 m/s 722 mmHg 49%
    20:00 +21°C° 0 mm 3 m/s 723 mmHg 54%
    21:00 +21°C° 0 mm 3 m/s 723 mmHg 56%
    22:00 +20°C° 0 mm 3 m/s 724 mmHg 57%
    23:00 +20°C° 0 mm 3 m/s 724 mmHg 59%

    Après-demain, 20 Novembre, Mardi

    Heure Température Précipitation Vent Pression Humidité
    00:00 +19°C° 0 mm 3 m/s 724 mmHg 60%
    01:00 +19°C° 0 mm 2 m/s 723 mmHg 60%
    02:00 +19°C° 0 mm 2 m/s 723 mmHg 61%
    03:00 +18°C° 0 mm 2 m/s 723 mmHg 62%
    04:00 +18°C° 0 mm 2 m/s 723 mmHg 62%
    05:00 +18°C° 0 mm 2 m/s 723 mmHg 63%
    06:00 +20°C° 0 mm 3 m/s 723 mmHg 57%
    07:00 +22°C° 0 mm 4 m/s 724 mmHg 52%
    08:00 +25°C° 0 mm 4 m/s 724 mmHg 47%
    09:00 +27°C° 0 mm 5 m/s 724 mmHg 44%
    10:00 +29°C° 0 mm 5 m/s 724 mmHg 41%
    11:00 +32°C° 0 mm 5 m/s 724 mmHg 38%
    12:00 +33°C° 0 mm 6 m/s 724 mmHg 37%
    13:00 +33°C° 0 mm 6 m/s 723 mmHg 36%
    14:00 +34°C° 0 mm 6 m/s 722 mmHg 35%
    15:00 +34°C° 0 mm 6 m/s 722 mmHg 37%
    16:00 +33°C° 0 mm 6 m/s 721 mmHg 38%
    17:00 +33°C° 0 mm 6 m/s 721 mmHg 40%
    18:00 +30°C° 0 mm 5 m/s 721 mmHg 45%
    19:00 +27°C° 0 mm 4 m/s 721 mmHg 51%
    20:00 +25°C° 0 mm 4 m/s 721 mmHg 56%
    21:00 +25°C° 0 mm 3 m/s 722 mmHg 58%
    22:00 +24°C° 0 mm 3 m/s 722 mmHg 61%
    23:00 +23°C° 0 mm 2 m/s 722 mmHg 63%

    21 Novembre, Mercredi

    Heure Température Précipitation Vent Pression Humidité
    00:00 +23°C° 0 mm 2 m/s 722 mmHg 64%
    01:00 +23°C° 0 mm 2 m/s 721 mmHg 65%
    02:00 +23°C° 0 mm 2 m/s 721 mmHg 66%
    03:00 +21°C° 0 mm 2 m/s 721 mmHg 66%
    04:00 +21°C° 0 mm 2 m/s 721 mmHg 66%
    05:00 +21°C° 0 mm 2 m/s 721 mmHg 66%
    06:00 +24°C° 0 mm 3 m/s 721 mmHg 59%
    07:00 +27°C° 0 mm 3 m/s 722 mmHg 52%
    08:00 +29°C° 0 mm 4 m/s 722 mmHg 45%
    09:00 +32°C° 0 mm 4 m/s 722 mmHg 42%
    10:00 +34°C° 0 mm 5 m/s 721 mmHg 40%
    11:00 +36°C° 0 mm 5 m/s 721 mmHg 37%
    12:00 +36°C° 0 mm 6 m/s 720 mmHg 37%
    13:00 +38°C° 0 mm 6 m/s 720 mmHg 36%
    14:00 +39°C° 0 mm 6 m/s 719 mmHg 35%
    15:00 +39°C° 0 mm 6 m/s 718 mmHg 37%
    16:00 +38°C° 0 mm 6 m/s 718 mmHg 38%
    17:00 +38°C° 0 mm 6 m/s 717 mmHg 40%
    18:00 +35°C° 0.1 mm 5 m/s 717 mmHg 46%
    19:00 +33°C° 0.1 mm 5 m/s 718 mmHg 52%
    20:00 +30°C° 0.1 mm 4 m/s 718 mmHg 58%
    21:00 +29°C° 0.2 mm 4 m/s 718 mmHg 61%
    22:00 +29°C° 0.2 mm 3 m/s 719 mmHg 63%
    23:00 +28°C° 0.2 mm 3 m/s 719 mmHg 66%

    22 Novembre, Jeudi

    Heure Température Précipitation Vent Pression Humidité
    00:00 +27°C° 0.7 mm 3 m/s 719 mmHg 69%
    01:00 +27°C° 0.7 mm 3 m/s 718 mmHg 72%
    02:00 +26°C° 0.7 mm 2 m/s 718 mmHg 75%
    03:00 +26°C° 0.2 mm 2 m/s 718 mmHg 75%
    04:00 +25°C° 0.2 mm 2 m/s 718 mmHg 76%
    05:00 +25°C° 0.2 mm 2 m/s 718 mmHg 76%
    06:00 +25°C° 1.1 mm 5 m/s 719 mmHg 77%
    07:00 +23°C° 1.1 mm 7 m/s 721 mmHg 78%
    08:00 +23°C° 1.1 mm 9 m/s 722 mmHg 79%
    09:00 +22°C° 0.4 mm 9 m/s 722 mmHg 77%
    10:00 +22°C° 0.4 mm 8 m/s 723 mmHg 75%
    11:00 +21°C° 0.4 mm 8 m/s 723 mmHg 73%
    12:00 +22°C° 0 mm 8 m/s 723 mmHg 68%
    13:00 +23°C° 0 mm 8 m/s 723 mmHg 63%
    14:00 +23°C° 0 mm 8 m/s 723 mmHg 58%
    15:00 +23°C° 0 mm 7 m/s 723 mmHg 59%
    16:00 +22°C° 0 mm 7 m/s 723 mmHg 60%
    17:00 +22°C° 0 mm 7 m/s 723 mmHg 61%
    18:00 +21°C° 0 mm 6 m/s 724 mmHg 64%
    19:00 +19°C° 0 mm 5 m/s 724 mmHg 68%
    20:00 +18°C° 0 mm 4 m/s 725 mmHg 71%
    21:00 +17°C° 0 mm 4 m/s 725 mmHg 72%
    22:00 +17°C° 0 mm 4 m/s 726 mmHg 74%
    23:00 +15°C° 0 mm 4 m/s 726 mmHg 75%

    23 Novembre, Vendredi

    Heure Température Précipitation Vent Pression Humidité
    00:00 +14°C° 0 mm 4 m/s 726 mmHg 77%
    01:00 +14°C° 0 mm 3 m/s 726 mmHg 79%
    02:00 +13°C° 0 mm 3 m/s 725 mmHg 80%
    03:00 +13°C° 0 mm 3 m/s 726 mmHg 81%
    04:00 +13°C° 0 mm 3 m/s 726 mmHg 82%
    05:00 +12°C° 0 mm 3 m/s 726 mmHg 83%
    06:00 +13°C° 0 mm 3 m/s 726 mmHg 78%
    07:00 +16°C° 0 mm 3 m/s 726 mmHg 73%
    08:00 +17°C° 0 mm 3 m/s 727 mmHg 68%
    09:00 +19°C° 0 mm 3 m/s 726 mmHg 63%
    10:00 +20°C° 0 mm 3 m/s 726 mmHg 58%
    11:00 +22°C° 0 mm 3 m/s 726 mmHg 53%
    12:00 +24°C° 0 mm 3 m/s 725 mmHg 51%
    13:00 +25°C° 0 mm 3 m/s 724 mmHg 50%
    14:00 +26°C° 0 mm 3 m/s 724 mmHg 48%
    15:00 +26°C° 0 mm 3 m/s 723 mmHg 49%
    16:00 +26°C° 0 mm 4 m/s 723 mmHg 50%
    17:00 +26°C° 0 mm 4 m/s 722 mmHg 51%
    18:00 +24°C° 0 mm 3 m/s 723 mmHg 57%
    19:00 +23°C° 0 mm 2 m/s 723 mmHg 63%
    20:00 +20°C° 0 mm 2 m/s 723 mmHg 69%
    21:00 +19°C° 0 mm 2 m/s 724 mmHg 73%
    22:00 +19°C° 0 mm 2 m/s 724 mmHg 78%
    23:00 +18°C° 0 mm 2 m/s 724 mmHg 82%
    Voir plus